Location: T�chigga el Be�da
(16.4766°N, 9.3887°W)
Time: 09:50:30
(UTC+00:00)

FALCON 9 R/B - Pass Details

Date: 27 February 2020
Orbit: 219 x 17386 km, 27.1° (Epoch: 28 March)

Event Time Altitude Azimuth Distance (km) Brightness Sun altitude
Rises 19:17:47 0° 239° (WSW) 2,761 5.9 -8.9°
Reaches altitude 10° 19:19:07 10° 237° (WSW) 2,211 5.2 -9.2°
Maximum altitude 19:23:51 77° 151° (SSE) 1,484 3.1 -10.3°
Enters shadow 19:46:54 13° 68° (ENE) 9,465 6.6 -15.8°
